Theta_e
285 286 286 288 287 286 285 285 284 284 285 285 282 282 284 283 279 276 282 284 281 284 286 288 289 290 290 288 287 287 287 287 286 285 285 285 285 285 285 285 286 285 285 286 286 286 286 286 286 286 286 287 287 287 286 286 286 285 285 285 284 285 284 284 284 285 285 286 286 285 285 285 285 285 285 286 287 287 286 286 287 286 286 286 286 286 287
284 285 285 286 285 284 284 283 284 284 284 283 283 283 284 283 281 283 283 283 282 285 286 288 289 290 288 287 287 286 285 285 285 285 285 285 285 285 284 285 285 285 286 286 285 286 286 286 285 286 286 286 286 286 286 286 286 285 285 284 284 284 283 283 284 284 285 285 285 285 285 284 284 284 284 285 286 286 286 286 286 286 286 285 285 285 286
280 283 285 285 284 282 280 282 283 283 283 283 283 283 283 284 282 283 283 282 281 287 289 287 287 288 287 286 285 284 284 285 284 284 284 285 285 286 286 285 285 285 286 286 286 285 286 286 286 286 286 286 287 286 286 286 285 285 285 283 283 283 283 284 284 284 284 284 284 284 284 284 283 283 283 284 285 285 285 285 285 285 285 285 285 285 285
277 281 281 282 282 281 280 279 280 281 281 279 281 280 283 281 279 281 281 279 280 285 285 286 286 285 284 283 283 283 283 283 283 282 282 283 284 285 286 286 286 285 285 285 285 285 285 286 286 286 286 286 286 286 286 286 286 285 284 283 283 283 283 283 283 283 283 283 283 283 283 282 282 281 282 283 284 285 285 285 284 284 284 284 284 284 284
274 279 280 279 279 277 274 275 278 280 281 282 282 283 284 283 283 279 277 278 284 282 286 284 284 281 280 282 282 282 282 282 282 283 283 284 284 284 285 286 286 285 285 285 285 285 285 286 286 286 287 286 286 286 286 286 286 284 283 283 283 283 283 283 283 283 283 282 282 282 282 281 281 280 280 281 282 284 284 284 284 283 283 283 283 284 284
274 278 278 278 274 267 269 281 284 283 280 281 279 279 281 283 284 281 283 282 283 284 284 283 280 279 280 281 282 283 283 282 282 282 282 283 283 284 285 286 287 287 286 286 286 286 286 287 287 287 287 286 287 287 286 286 285 284 283 283 283 282 282 282 282 282 282 282 281 281 281 280 280 279 279 279 281 283 284 284 283 282 282 282 283 283 283
273 276 276 272 266 268 279 283 284 284 282 281 280 280 281 282 282 282 283 284 284 285 283 281 281 281 282 282 282 282 283 283 283 283 283 283 284 284 285 286 287 287 287 286 286 286 286 286 287 287 287 287 287 287 286 285 284 283 283 282 282 282 281 281 281 281 281 281 281 281 280 280 279 278 278 278 279 281 282 282 281 280 281 281 282 282 282
276 274 272 265 265 277 277 280 282 284 283 282 280 278 281 282 282 282 281 283 284 283 280 281 281 281 281 283 283 283 284 284 284 284 283 283 283 283 284 284 285 286 287 286 286 286 287 287 287 287 287 287 286 285 285 284 284 283 282 282 281 281 281 281 281 281 280 280 280 280 279 279 278 277 277 277 277 279 281 281 280 280 280 280 280 280 280
270 272 272 271 277 276 278 278 280 281 278 279 278 273 278 283 282 283 282 283 282 280 279 280 280 282 283 280 281 284 284 285 286 285 283 284 284 284 285 285 285 286 286 287 287 287 287 287 287 286 287 286 285 284 283 283 283 282 282 281 280 280 280 280 280 280 280 279 279 279 278 277 276 276 276 276 277 278 279 279 278 278 277 277 278 279 279
276 271 270 270 270 266 272 279 283 284 283 283 282 279 274 283 279 282 282 280 279 278 279 279 280 282 278 276 278 283 284 285 285 285 286 285 284 284 284 285 285 286 286 287 286 286 285 285 285 284 283 281 281 280 280 280 280 280 280 280 280 280 280 280 280 280 279 279 278 278 277 276 276 276 276 276 276 277 277 276 276 276 276 276 276 277 278
274 271 268 267 266 269 277 274 280 282 283 283 281 277 271 279 276 279 279 278 279 279 279 279 280 277 273 274 278 283 283 284 284 283 284 284 284 285 285 284 284 285 284 284 284 284 284 282 282 281 281 280 278 277 278 278 278 278 278 279 279 279 279 279 279 279 278 278 278 277 276 276 275 274 274 274 275 276 276 275 274 275 275 274 274 275 276
272 271 268 267 271 270 276 277 281 282 283 281 278 267 268 278 280 280 279 277 278 279 280 280 278 276 273 275 279 283 283 284 284 284 283 283 284 284 284 284 283 283 283 282 281 281 280 280 280 280 279 278 277 276 276 277 276 276 277 277 278 278 278 278 277 277 277 276 276 276 275 274 274 274 274 274 274 274 274 274 273 273 273 273 272 273 275
272 272 269 272 272 278 280 279 282 283 284 280 269 264 273 277 279 281 282 280 280 280 279 280 276 279 280 281 282 283 283 283 283 284 284 284 284 283 282 281 282 280 280 279 278 278 278 279 278 278 277 276 275 274 274 274 274 274 275 276 276 276 276 275 275 274 275 275 274 274 274 273 273 273 273 273 273 272 272 271 271 271 270 271 271 271 272
270 271 269 269 272 277 280 281 282 284 278 269 268 277 280 280 280 281 281 281 281 280 280 280 280 281 282 283 283 283 283 283 283 283 284 283 283 283 282 281 280 278 277 277 277 277 277 276 276 275 275 273 273 272 272 271 272 273 273 273 273 273 273 272 272 272 272 272 272 272 272 272 271 271 272 272 271 271 271 270 269 268 269 269 269 269 270
273 271 268 267 263 275 279 280 279 282 273 274 280 282 282 283 282 282 281 282 281 281 280 281 281 281 281 282 282 282 282 282 282 282 282 281 280 279 278 278 278 276 275 275 274 274 274 274 274 273 272 271 270 270 269 270 271 271 271 271 270 270 270 269 269 269 269 269 270 270 270 270 270 269 270 269 269 269 268 268 267 267 267 267 268 268 270
268 268 266 267 274 278 281 279 274 278 281 283 283 282 280 283 282 281 281 281 282 282 281 281 281 281 281 281 282 282 282 282 282 282 281 279 278 278 277 277 275 274 273 272 271 272 272 272 271 271 270 268 268 268 267 269 269 269 268 267 267 267 266 266 266 266 266 267 267 268 268 268 268 267 267 267 267 268 267 267 266 266 267 267 268 268 268
273 270 273 277 280 281 282 282 281 282 284 284 284 283 282 281 282 283 281 281 282 282 282 281 281 280 281 281 281 281 280 281 280 279 278 277 276 276 275 274 273 272 270 269 269 269 270 269 269 269 269 267 266 265 266 267 266 265 264 264 263 263 262 262 263 263 264 264 264 265 265 266 265 266 266 266 265 266 266 266 266 265 266 267 266 267 268
279 280 280 281 281 281 281 283 284 283 283 284 284 283 282 283 283 283 281 282 282 282 281 280 280 280 280 280 280 280 279 278 278 278 277 276 275 274 273 272 271 269 269 268 267 267 267 267 267 267 266 265 263 263 264 264 263 262 262 261 260 260 260 261 261 261 261 261 262 263 263 264 264 265 265 265 265 265 265 265 265 265 265 266 266 267 267
274 269 279 278 279 281 281 282 283 284 284 283 283 283 283 283 283 283 283 282 281 280 280 279 278 279 280 278 278 278 277 276 276 275 274 274 273 271 270 270 269 267 266 265 265 265 263 265 264 264 263 263 263 263 262 262 262 261 260 259 259 259 259 259 260 260 259 260 260 261 262 262 263 264 264 264 264 264 264 264 264 264 265 265 265 266 266
273 273 277 279 281 281 282 282 281 281 282 283 284 284 284 283 282 281 280 279 278 279 278 278 277 277 277 276 276 275 275 274 274 273 273 271 270 270 269 268 267 265 264 263 263 262 262 262 263 262 262 262 262 262 261 261 260 260 259 259 258 258 258 259 259 259 259 260 260 260 261 261 261 261 262 263 262 262 262 263 262 263 263 264 264 265 265
276 278 279 279 280 280 281 282 282 283 283 283 283 283 283 281 280 278 277 278 278 277 277 276 275 274 274 274 274 272 272 272 272 271 270 269 268 267 266 266 265 263 263 262 261 261 260 261 261 261 261 261 261 261 261 260 260 258 258 258 258 258 258 258 258 259 259 259 259 259 260 260 260 261 261 261 261 261 262 263 263 262 262 262 263 264 264
272 273 275 279 274 274 279 281 282 282 283 283 283 282 280 279 278 277 276 275 275 275 275 274 273 272 272 272 272 270 270 270 269 269 268 267 266 265 265 264 263 262 262 261 260 259 260 260 260 260 260 260 260 260 260 259 259 258 258 258 257 257 258 258 258 258 259 259 259 259 259 259 259 260 263 266 264 262 262 266 268 270 269 264 265 265 265
272 278 280 281 280 279 280 281 283 283 281 282 280 280 280 278 277 275 275 275 274 273 272 272 271 270 270 270 269 268 268 268 268 267 266 265 264 263 263 262 261 260 260 259 259 259 259 260 259 259 259 259 259 259 259 259 259 258 258 257 257 257 257 257 258 258 258 258 258 258 258 259 259 259 259 261 266 267 268 267 268 269 270 271 271 272 268
280 281 281 282 280 278 280 282 282 279 279 279 280 278 277 276 274 273 273 273 273 273 272 270 269 268 268 267 267 265 266 266 265 265 264 264 262 262 262 261 260 259 258 258 258 258 259 259 258 258 258 258 258 259 259 259 259 258 257 257 256 256 256 257 257 257 257 257 258 258 258 259 258 258 258 258 259 264 267 268 268 269 269 270 270 271 271
278 282 283 283 282 282 282 279 278 277 276 277 278 277 275 273 272 272 271 271 270 269 268 269 268 267 265 265 265 264 264 263 263 263 262 261 261 261 260 259 258 258 258 258 258 258 258 258 258 258 257 258 258 258 259 258 258 257 257 256 256 256 256 256 257 257 257 257 257 258 258 258 258 258 258 258 257 258 261 266 267 268 268 269 270 270 270
283 283 283 284 283 282 279 277 276 274 274 274 273 271 270 270 269 268 268 268 268 267 267 266 266 266 264 262 262 262 261 261 262 261 260 260 260 259 258 258 258 258 258 258 258 257 257 257 257 257 257 257 258 258 259 259 258 257 256 256 256 256 256 256 256 256 257 257 257 258 258 258 258 258 258 258 258 258 258 258 260 263 266 267 268 269 269
284 284 283 281 280 280 280 278 277 274 272 272 272 270 269 267 266 266 266 266 265 266 265 264 263 263 261 261 261 261 260 260 260 259 259 259 258 258 258 258 258 258 257 257 257 257 257 257 257 257 257 258 259 259 259 258 257 257 256 256 256 257 257 257 257 257 257 257 258 258 258 258 258 258 258 259 259 258 258 257 257 258 258 260 264 267 265
283 283 282 279 278 279 276 272 271 270 270 269 269 267 265 265 264 263 262 263 264 264 263 262 262 260 259 260 260 259 259 258 258 258 258 257 258 258 258 258 257 257 256 256 256 256 257 257 257 257 257 259 259 259 259 258 257 256 256 256 256 256 256 257 257 257 257 258 258 258 258 258 258 258 258 258 258 258 258 259 258 258 259 260 261 265 268
281 276 274 274 273 271 271 270 269 268 267 267 266 265 263 261 261 261 262 264 264 262 261 262 261 259 259 259 259 257 257 257 256 256 257 257 257 257 257 257 256 256 256 255 256 256 257 257 257 257 257 259 259 259 258 258 257 256 256 256 256 256 256 257 257 257 257 258 258 258 259 258 258 258 258 258 259 259 258 258 258 259 259 260 260 261 264
274 271 271 270 270 270 269 269 269 268 266 265 264 262 262 262 263 263 263 262 262 260 261 260 259 258 259 257 257 257 256 256 256 256 256 256 256 256 256 256 255 255 256 257 257 258 257 257 257 256 257 258 259 259 258 257 257 257 256 256 256 256 257 257 257 257 257 258 258 259 259 259 259 259 258 258 258 258 258 258 259 259 259 260 261 261 261
267 267 267 267 267 267 268 270 268 267 265 263 263 262 262 261 261 261 262 261 260 259 259 258 257 257 256 256 256 256 255 255 255 255 255 255 255 255 255 255 254 255 256 256 256 257 257 257 257 257 258 259 259 258 257 257 257 257 257 257 257 258 258 259 260 258 258 258 258 258 258 259 259 258 258 258 258 258 258 259 259 259 259 260 260 260 261
264 262 263 264 265 265 265 265 265 265 264 263 260 259 261 259 258 258 258 256 256 256 256 255 255 255 256 256 255 255 255 254 254 254 254 254 254 254 255 255 256 256 257 257 257 257 256 256 256 257 258 258 258 257 257 257 257 256 256 256 257 257 258 259 258 258 258 258 258 258 259 258 258 259 259 258 258 258 258 258 258 259 259 259 259 260 261
264 264 264 261 260 261 262 263 263 263 262 260 261 260 259 258 257 256 256 256 255 255 255 255 255 255 255 255 254 253 253 253 253 252 252 253 254 255 256 257 257 257 257 257 257 256 256 256 257 258 258 257 257 257 257 257 256 256 256 256 256 257 257 258 258 258 258 258 258 259 259 259 259 259 259 259 259 259 259 259 259 259 259 259 260 261 262
268 269 265 263 263 265 264 262 262 261 260 260 259 258 257 257 256 256 255 255 254 254 254 254 255 254 254 253 253 252 252 252 252 253 254 254 254 255 256 257 257 256 256 256 256 257 257 258 258 257 257 257 257 257 256 256 256 256 256 256 256 256 257 257 258 259 259 259 259 260 260 259 259 259 259 259 259 259 259 259 259 260 260 260 261 262 264
260 259 259 258 257 256 257 259 259 259 258 256 256 255 255 255 254 253 254 253 253 253 254 255 254 254 253 253 252 251 251 251 251 252 253 253 254 255 256 256 256 255 255 255 256 257 258 257 256 256 256 256 256 256 256 255 256 256 256 256 256 257 258 258 259 259 259 259 260 260 260 260 260 261 261 260 260 260 260 260 260 260 260 260 261 262 263
256 255 254 254 253 253 253 253 254 254 254 254 253 253 253 253 253 253 252 253 254 255 254 254 254 253 252 251 251 251 251 252 252 252 252 253 255 256 255 254 254 254 254 254 256 256 256 256 257 257 257 256 256 256 255 256 256 256 256 256 257 257 258 258 258 259 260 260 260 260 260 261 261 261 262 262 262 261 261 261 261 261 261 261 262 263 263
254 254 253 253 254 253 252 252 253 252 252 252 253 253 253 252 252 252 253 253 253 253 253 253 252 251 251 251 252 252 252 252 252 253 254 255 255 255 254 254 254 253 254 255 257 257 256 256 257 257 256 256 256 255 256 257 257 257 257 256 257 257 257 257 258 258 259 259 260 260 260 261 261 261 262 262 262 263 263 262 262 262 263 263 264 264 265
254 254 253 253 252 252 252 252 252 251 250 250 251 251 251 251 251 251 251 251 251 252 252 252 251 251 251 251 251 251 251 252 252 252 252 253 254 254 253 253 254 255 255 256 257 256 256 256 257 256 255 255 255 255 255 257 257 256 256 256 256 257 257 257 257 258 258 258 259 259 259 259 260 260 261 261 261 262 262 262 262 262 262 263 262 262 262
253 254 253 252 252 251 251 252 250 249 250 249 250 250 251 251 251 251 251 251 251 252 251 251 251 251 250 250 249 250 250 251 251 252 253 253 254 253 253 254 254 254 255 256 255 255 256 256 256 255 255 255 254 254 256 257 257 256 256 256 256 256 257 257 257 257 258 258 258 258 258 259 259 259 259 260 260 261 261 261 261 261 261 261 261 260 260
254 253 252 251 251 251 251 251 251 250 250 250 249 249 250 250 251 251 251 250 251 252 251 251 249 249 249 249 249 249 251 251 252 252 253 253 253 253 253 255 255 254 254 256 255 255 256 256 255 255 255 255 255 255 256 256 256 256 255 255 255 256 256 256 257 257 257 257 257 258 257 258 258 258 259 259 259 259 259 259 259 259 259 259 259 259 259
252 252 252 251 251 251 251 250 251 251 250 250 250 250 251 250 251 250 249 249 250 250 249 249 248 249 249 248 249 249 250 251 252 253 253 253 253 253 254 254 256 256 254 255 255 256 256 256 255 255 255 255 255 256 255 255 255 255 255 255 255 255 255 255 256 256 256 256 256 256 256 257 257 257 257 258 258 258 258 258 258 258 258 258 258 258 258
252 252 251 251 251 251 251 251 251 250 250 250 250 250 251 251 250 249 249 250 249 249 249 248 250 249 249 249 249 250 251 252 253 254 254 254 253 253 253 254 257 256 257 256 256 255 256 255 255 255 254 254 255 255 255 255 254 254 254 254 255 255 255 255 255 255 256 256 256 256 256 256 256 256 256 257 257 257 257 257 257 257 257 257 257 257 257
250 249 250 249 250 250 250 250 250 250 249 250 250 250 250 250 249 249 248 248 248 248 248 248 248 250 250 250 250 251 252 253 253 254 254 255 255 254 254 255 256 256 256 255 255 255 255 255 255 254 255 255 255 255 255 254 254 254 254 254 254 254 254 255 255 255 255 255 255 255 255 255 255 255 255 255 256 256 256 256 256 256 257 257 257 257 257
250 250 250 250 249 250 250 250 249 249 248 249 251 250 249 249 248 248 248 248 248 248 248 248 248 248 250 251 251 253 254 255 255 255 254 254 255 256 254 255 255 256 255 255 255 255 255 255 254 255 255 255 255 255 254 254 254 254 253 253 253 254 254 254 254 254 254 254 254 255 255 255 255 255 255 255 255 256 256 256 257 256 257 257 257 257 257
250 250 249 249 249 248 249 249 249 249 250 251 250 248 248 247 247 247 247 247 248 248 249 249 250 251 252 254 255 255 255 256 255 255 253 253 253 255 255 255 255 255 255 255 255 255 255 254 254 254 254 254 254 254 254 253 254 253 253 253 253 253 253 253 253 253 254 254 254 254 255 255 255 255 255 255 255 255 256 256 256 257 257 256 257 256 256
249 250 249 249 248 247 249 250 250 249 249 247 246 246 247 247 247 248 248 247 247 248 249 251 252 254 255 255 255 255 255 255 255 255 255 255 254 255 256 255 255 255 255 254 254 254 254 255 254 254 254 254 254 253 253 253 253 253 253 253 253 253 253 253 253 253 253 253 253 254 254 254 254 254 255 255 255 255 255 256 257 257 257 256 256 256 257
249 247 247 246 247 247 247 246 247 246 244 243 244 247 251 250 250 251 252 251 250 250 252 253 254 255 256 256 255 255 254 255 255 256 256 256 256 255 255 255 255 254 254 254 254 254 254 254 254 254 254 254 254 253 253 253 253 253 253 253 253 253 253 253 253 252 253 253 253 253 254 254 254 254 254 254 255 255 255 255 255 255 256 256 255 255 255
246 246 246 246 245 246 245 244 243 243 244 246 248 250 251 251 251 252 254 255 255 255 256 256 256 256 256 256 256 256 255 254 253 255 256 255 255 254 254 254 254 254 254 254 254 254 254 254 254 253 253 253 253 253 253 253 253 253 253 253 253 253 253 253 253 252 252 252 252 252 252 252 252 252 253 253 254 254 254 254 254 254 254 254 254 254 254
244 245 245 245 245 244 244 245 247 249 251 251 250 252 252 252 253 254 255 255 255 255 256 256 256 256 256 256 256 256 256 256 254 254 255 255 254 254 254 254 254 254 254 254 253 253 254 254 253 253 253 253 253 253 253 253 253 253 253 253 252 253 253 252 252 252 252 252 252 252 252 252 252 252 252 252 253 253 253 253 254 253 253 253 253 253 253
246 246 247 249 250 250 249 251 252 253 253 254 254 255 255 255 254 255 256 256 256 256 256 256 257 257 257 257 257 256 256 255 255 255 255 254 254 254 254 254 254 254 253 253 253 253 254 254 253 253 253 253 253 253 253 253 252 253 253 253 252 252 253 252 252 252 252 252 251 252 251 251 251 251 252 252 252 252 252 253 253 253 253 254 253 253 253
249 250 251 251 251 251 248 249 251 252 253 254 255 255 256 255 255 256 256 256 256 255 255 256 257 257 257 257 256 256 256 255 255 254 254 254 254 254 254 254 254 254 253 253 253 254 254 254 254 253 253 253 253 253 253 252 252 252 253 252 252 252 252 252 252 251 251 251 251 251 251 251 250 251 251 251 251 251 251 251 252 252 252 252 253 253 253
247 247 249 250 250 250 251 251 251 253 254 255 255 255 256 256 255 255 256 256 255 255 255 255 255 257 257 256 256 256 256 255 255 255 255 254 255 254 254 254 254 254 254 253 253 253 254 254 253 253 252 252 252 252 252 252 252 252 252 252 252 252 252 251 251 250 250 250 251 251 251 251 250 250 250 250 250 250 250 250 250 251 251 251 251 252 252
Wind_Speed
17 16 17 16 15 14 15 16 17 18 17 16 16 15 15 11 13 16 13 18 21 17 19 19 19 19 8 7 7 7 5 5 5 5 5 6 6 6 6 6 5 5 5 5 5 6 6 6 7 8 7 7 6 6 5 5 5 6 6 6 6 6 6 6 6 6 6 5 5 6 6 6 7 8 8 8 8 7 6 6 5 5 6 7 7 7 6
12 15 15 14 14 13 14 15 17 18 20 23 22 21 19 20 21 21 22 25 29 22 22 24 12 6 6 5 6 5 5 4 5 5 6 6 7 7 7 6 6 6 5 5 5 5 6 6 6 6 6 6 7 7 8 7 7 6 7 7 8 8 8 7 7 7 7 6 6 7 7 7 7 8 8 8 8 8 8 7 7 6 6 6 6 6 7
9 10 13 13 13 12 16 18 21 23 26 25 22 22 23 22 22 24 25 25 24 19 12 6 7 4 5 3 3 3 2 2 3 4 6 7 7 9 8 8 7 7 7 7 7 7 7 7 7 6 6 6 6 7 7 6 6 6 6 8 8 8 9 8 8 8 8 7 7 7 7 7 5 7 11 9 8 7 7 6 8 7 7 8 6 6 7
10 8 14 14 14 16 16 16 19 23 23 22 17 17 12 14 16 19 19 16 15 5 7 4 5 4 4 3 3 1 1 2 4 5 6 7 8 9 9 9 8 8 8 8 7 8 8 8 8 7 7 7 6 7 7 6 6 5 5 6 7 8 8 9 9 9 8 8 8 7 7 5 6 7 7 8 8 8 9 8 7 7 9 8 9 8 7
8 9 8 11 5 6 13 18 22 19 20 20 20 20 20 20 19 16 14 12 2 2 1 1 2 7 2 3 3 4 3 5 6 7 8 9 10 10 9 9 9 8 8 8 8 8 8 7 8 8 8 8 8 8 7 7 5 5 6 6 6 7 7 7 8 8 8 7 6 5 4 4 4 6 8 8 9 8 7 7 8 8 10 10 10 9 8
9 10 6 2 4 14 17 5 1 7 14 12 14 14 15 15 12 9 2 1 2 2 1 2 4 4 5 7 6 6 5 6 7 7 8 9 10 10 10 10 10 9 8 8 8 8 9 9 9 9 8 8 9 8 8 7 7 7 7 7 7 7 7 7 7 7 8 7 8 8 7 6 5 6 7 8 9 8 9 8 7 8 9 10 9 10 9
13 11 9 11 15 15 2 3 5 5 3 2 10 15 16 16 15 12 10 11 6 3 4 5 7 6 8 7 9 8 8 7 6 7 8 9 10 11 11 11 10 10 9 10 9 10 10 10 9 8 8 8 8 7 7 7 7 7 7 8 7 7 8 8 7 5 6 7 8 8 8 7 8 9 10 10 10 9 8 7 8 9 10 9 8 9 9
10 10 11 12 12 1 2 4 3 6 6 10 12 14 14 16 15 11 9 7 4 4 6 6 6 7 7 7 8 10 10 7 5 6 7 8 10 10 10 12 12 12 11 10 10 9 8 8 7 7 8 7 7 7 6 6 7 7 7 6 9 8 8 9 8 8 8 9 9 7 6 6 8 10 10 10 11 11 9 8 8 9 9 8 10 12 11
13 10 12 18 11 16 16 17 13 10 9 7 6 8 8 4 2 6 5 1 6 6 8 7 7 4 4 7 8 8 7 6 5 6 7 9 9 10 10 11 12 12 13 13 12 11 9 7 6 6 7 6 6 7 7 6 7 8 8 9 9 10 9 10 9 11 11 10 10 9 6 8 10 10 10 11 11 8 10 10 10 10 10 10 10 11 12
10 13 12 13 11 13 7 2 3 6 6 6 5 8 7 3 4 6 0 3 6 6 6 5 7 3 6 7 7 5 5 6 8 7 5 7 9 9 11 11 11 12 11 11 11 11 12 10 9 8 9 8 8 6 7 8 9 10 10 11 11 10 12 10 12 11 9 9 10 11 10 11 11 8 8 8 10 9 10 10 11 11 10 11 11 11 11
8 12 13 12 12 9 4 4 3 4 6 5 7 6 10 0 1 1 4 2 3 3 5 7 6 4 6 7 7 6 9 11 10 10 9 9 10 11 11 12 10 9 9 10 11 10 10 10 9 8 8 7 6 7 8 10 9 11 11 12 12 11 12 12 11 10 10 11 12 11 11 11 11 12 13 12 10 10 10 9 10 10 10 10 12 13 13
11 11 11 13 4 6 2 2 1 5 3 3 5 12 9 3 4 1 1 2 5 5 6 7 5 5 7 8 8 10 12 12 12 11 11 11 11 12 10 9 9 10 10 11 11 11 11 11 11 11 8 7 8 9 10 10 10 10 12 12 12 13 13 12 9 9 11 12 13 12 13 13 12 12 12 12 12 10 9 8 9 10 11 11 14 14 13
12 15 12 10 10 9 9 5 7 1 3 1 6 13 3 4 2 4 3 4 4 7 7 6 6 7 8 9 11 12 12 13 12 11 9 10 10 9 9 8 9 8 8 8 9 11 10 10 11 10 8 9 10 10 11 11 11 12 12 13 13 12 12 11 11 14 13 13 14 14 13 14 13 13 11 12 12 11 12 9 10 11 13 14 14 15 15
12 12 14 13 11 7 6 5 6 6 2 7 10 2 5 5 5 4 7 8 9 9 9 8 8 8 9 11 10 11 12 12 12 11 11 8 7 7 7 8 8 7 8 9 10 9 9 10 10 8 9 10 11 11 11 11 12 13 13 13 12 12 12 13 14 14 15 14 14 14 14 13 14 14 13 13 13 13 11 13 15 16 15 14 13 16 16
8 9 11 11 12 2 3 3 4 5 5 5 6 2 4 3 3 5 6 7 8 7 8 8 9 10 10 11 11 12 12 11 11 10 7 6 7 8 9 9 8 8 9 10 10 11 10 9 9 8 9 11 11 10 11 12 12 11 12 12 13 14 14 16 16 17 16 16 15 13 14 14 15 16 15 14 14 13 14 15 16 18 18 17 16 14 14
10 10 9 5 4 7 5 5 5 4 7 8 9 9 10 9 8 7 7 8 9 9 9 9 9 10 11 11 12 12 11 10 8 6 6 6 6 7 6 6 8 7 9 9 11 11 9 8 8 7 8 10 10 11 14 13 13 12 12 14 16 16 16 17 18 18 18 17 17 16 16 16 15 16 16 15 14 12 14 14 14 14 14 14 13 15 16
9 9 10 7 4 4 3 8 8 8 8 9 10 9 10 9 8 7 8 10 9 8 7 9 9 10 10 12 11 10 8 7 6 6 6 6 7 7 7 8 7 6 9 11 12 12 9 8 8 7 7 10 13 14 13 12 12 13 15 16 16 17 18 17 18 17 16 16 17 17 16 16 17 17 17 16 15 13 14 13 15 16 14 14 15 14 15
15 15 16 13 14 13 9 9 8 11 14 14 13 10 8 8 9 10 10 8 7 7 5 6 7 8 9 9 7 6 6 6 6 6 6 6 6 6 6 6 7 8 9 9 10 12 12 8 8 8 8 7 12 13 13 12 13 13 15 17 17 18 18 16 16 17 18 18 17 16 17 15 16 16 17 16 17 16 15 15 16 16 16 15 15 15 15
9 11 11 12 16 17 15 16 16 14 13 15 12 11 11 11 10 7 4 3 5 5 3 5 7 8 6 6 6 6 6 6 6 6 6 6 6 7 6 8 8 7 8 9 11 12 14 10 7 7 8 8 9 11 12 13 13 13 15 16 17 17 17 16 17 16 16 15 15 15 15 14 13 13 14 14 14 15 15 14 14 14 15 15 15 15 16
14 14 14 16 14 15 16 14 13 15 16 15 14 11 11 5 3 2 1 1 3 2 3 4 4 5 4 5 6 5 5 6 6 6 6 6 7 6 6 7 6 6 8 10 12 13 13 11 10 9 9 9 10 12 12 12 13 15 15 15 16 16 17 15 15 14 15 19 18 15 14 13 14 14 13 13 14 15 14 14 14 16 15 15 16 15 15
13 16 19 19 18 19 20 19 17 15 14 13 13 14 6 5 3 5 3 2 2 1 3 1 3 4 5 5 5 5 5 5 5 6 6 7 7 7 7 7 7 8 9 10 11 12 13 12 11 11 10 10 11 12 10 11 13 15 17 19 17 18 16 15 14 14 14 14 14 14 15 15 14 14 14 15 15 16 16 14 15 17 17 18 18 16 15
14 13 13 12 11 11 12 14 12 13 12 11 10 4 4 3 4 4 5 4 3 2 1 1 2 2 4 3 3 4 5 5 5 6 7 6 7 7 7 7 8 9 9 10 12 13 12 11 11 12 12 12 12 11 13 13 12 15 16 17 17 16 14 14 15 14 13 13 13 14 15 15 15 15 18 24 21 18 17 23 30 32 28 21 19 16 16
12 12 14 13 14 15 16 15 13 4 3 4 5 6 6 5 4 4 3 4 4 4 4 2 1 3 3 4 4 4 4 5 5 6 7 7 7 9 9 9 9 8 10 11 12 12 12 10 11 12 13 14 14 13 11 12 13 14 15 16 16 15 14 13 15 15 15 15 14 14 14 15 15 16 16 14 22 29 30 30 30 31 32 34 36 34 26
18 18 16 14 13 15 16 16 6 5 2 4 5 3 3 4 4 3 3 2 3 3 2 2 1 1 2 3 4 5 6 6 6 7 7 7 8 9 8 7 9 11 11 11 12 12 11 11 12 13 15 15 13 13 12 12 12 13 14 16 16 15 15 15 16 16 15 15 15 15 14 14 15 16 16 16 16 20 26 28 29 30 30 32 33 32 34
18 17 16 16 16 18 10 1 4 3 4 3 5 5 5 5 4 3 2 2 1 1 2 2 0 2 1 2 3 5 6 7 6 7 8 8 9 8 8 8 9 10 10 10 11 12 12 13 15 14 15 15 14 13 13 12 13 14 15 16 17 17 16 16 15 16 15 15 15 14 15 15 15 15 16 16 17 16 15 22 27 28 30 31 32 32 33
18 18 17 16 15 9 4 2 4 7 5 6 4 4 5 5 5 4 2 1 1 1 1 1 1 1 3 3 4 5 6 7 7 7 8 7 6 6 7 8 9 9 10 11 11 12 14 14 14 15 16 16 14 13 13 14 14 14 15 15 16 15 15 16 16 15 15 14 14 14 14 14 14 15 15 16 16 16 17 15 15 19 23 27 28 30 31
17 17 16 15 12 10 7 10 6 7 7 5 5 6 6 5 4 3 3 2 1 1 1 1 2 2 3 4 5 5 6 7 7 7 7 7 8 7 7 7 10 11 12 12 12 12 14 14 14 14 15 15 14 14 14 14 14 14 14 16 16 18 25 21 14 14 14 14 14 14 14 14 14 14 15 15 15 16 16 16 16 16 15 15 20 25 22
16 13 9 13 14 11 2 7 8 7 7 6 7 7 6 5 3 3 1 2 2 2 1 0 1 1 3 4 4 6 6 6 7 7 7 7 6 7 8 9 11 12 11 12 13 12 11 13 14 15 16 15 15 15 14 13 13 14 14 15 15 14 15 16 14 13 13 13 13 13 14 14 14 14 15 15 15 15 15 16 16 16 15 14 13 17 29
7 4 3 3 5 7 6 5 6 6 6 6 6 5 5 4 3 3 3 4 3 2 2 2 1 0 3 4 4 5 6 7 7 8 7 7 7 8 8 9 10 12 12 13 13 12 11 11 13 15 17 15 14 13 11 12 13 13 14 13 13 13 13 13 13 13 13 13 13 14 15 16 15 15 14 15 15 14 14 14 15 15 16 15 14 14 17
4 4 4 3 4 6 6 4 5 7 6 6 6 4 3 4 2 2 2 2 2 2 2 1 2 3 3 5 5 5 6 7 8 7 8 8 8 8 8 9 10 10 10 9 9 10 13 14 14 14 15 13 12 11 12 13 13 13 13 13 13 12 13 13 13 14 15 14 15 19 16 14 14 14 14 14 14 14 15 15 15 15 15 15 15 15 15
7 5 4 4 4 2 4 4 5 6 6 4 5 5 4 3 2 2 3 2 1 2 2 2 4 5 5 5 5 5 7 8 8 9 9 10 10 9 9 8 7 9 9 11 13 13 13 14 13 13 13 13 12 13 13 12 13 13 13 12 11 17 21 23 19 15 14 14 15 14 14 14 13 14 14 14 14 14 13 13 14 14 14 13 14 14 14
6 5 4 2 2 2 2 1 3 4 5 5 4 2 4 3 3 4 2 1 3 2 4 4 5 6 5 4 6 7 7 7 8 9 10 10 10 10 9 8 9 10 10 12 12 12 13 13 14 15 12 12 13 13 12 13 13 12 12 11 12 12 14 21 15 15 14 14 14 14 14 13 13 12 13 13 13 13 13 13 14 13 12 13 13 13 13
4 0 2 3 1 2 3 3 5 4 5 4 4 3 2 2 1 2 3 2 2 3 4 5 5 5 5 6 6 6 6 6 7 10 9 9 9 8 8 8 8 8 10 11 12 12 12 13 12 12 13 14 13 13 11 11 10 11 11 11 11 12 13 15 16 14 14 14 13 13 12 13 12 12 12 13 13 13 12 12 12 13 13 12 12 12 12
4 4 0 2 3 4 7 6 3 4 3 3 3 2 2 1 2 2 2 3 4 5 5 6 6 5 5 5 6 5 6 6 7 7 8 9 10 10 8 8 8 9 11 11 11 9 9 9 10 12 13 13 13 11 10 9 10 11 11 11 11 12 12 12 14 12 12 13 13 14 13 13 13 11 12 12 12 11 12 11 12 12 12 12 12 11 16
7 7 6 5 5 5 5 3 4 4 4 3 2 2 2 2 2 3 4 4 5 5 5 6 5 5 5 5 6 6 6 8 9 9 10 9 9 9 8 9 10 11 12 11 10 9 8 9 12 12 12 12 12 9 8 10 10 11 11 11 12 12 12 12 12 12 12 13 13 13 13 12 11 12 13 13 12 12 11 11 11 11 11 11 11 10 13
4 6 5 5 5 5 5 5 3 3 3 4 3 3 4 4 4 4 5 5 5 5 5 6 5 4 5 6 7 7 7 8 8 9 9 9 8 8 8 10 11 12 13 13 8 3 7 10 15 17 13 12 10 8 9 10 10 10 12 12 11 11 12 12 12 12 12 12 12 12 12 14 16 13 12 10 11 10 10 11 11 10 10 11 11 11 11
4 5 5 4 4 5 4 4 4 4 4 4 4 4 4 4 4 4 4 5 5 5 6 5 4 5 6 7 6 7 7 8 7 7 8 8 8 8 9 10 11 10 9 9 7 7 10 11 15 20 13 9 8 9 11 17 12 12 12 11 10 10 11 11 11 11 12 12 12 12 13 13 11 11 12 11 11 11 10 10 11 11 11 11 12 11 11
4 4 4 4 3 3 2 3 2 2 2 2 4 4 4 4 4 3 4 4 5 6 5 5 5 6 7 7 7 8 8 8 8 9 8 9 7 9 10 8 7 6 7 7 8 10 10 13 17 13 9 7 8 9 12 18 19 14 9 9 9 10 11 11 11 12 12 12 12 12 12 11 12 11 11 11 10 10 10 10 10 10 10 9 9 9 9
4 3 3 3 3 2 2 2 3 2 3 5 4 3 3 3 4 4 4 5 6 5 5 6 6 6 7 7 8 7 8 8 8 8 8 8 7 6 8 9 9 9 8 7 8 10 11 11 11 10 8 7 9 9 11 15 19 11 9 8 9 9 10 10 11 12 12 12 11 11 12 11 11 11 11 11 10 10 10 11 10 10 9 9 9 8 8
3 2 2 2 1 1 1 2 2 3 3 3 4 5 3 3 3 4 5 5 7 6 6 6 4 6 6 7 7 8 8 7 6 7 8 7 7 8 9 9 9 8 4 6 7 9 12 17 12 8 7 7 8 8 10 15 16 9 8 8 8 9 9 10 10 10 11 11 12 13 11 11 11 11 11 11 10 10 10 10 10 9 9 9 9 9 9
2 2 2 2 1 1 2 2 3 2 2 3 3 4 4 4 4 5 6 7 7 4 4 5 5 7 8 8 9 9 9 8 8 8 6 6 6 5 6 7 3 0 2 5 8 11 13 10 8 8 6 8 7 9 10 14 10 6 7 7 8 8 8 9 9 9 10 11 11 11 11 11 12 12 11 11 10 10 10 10 9 9 9 9 9 9 8
2 2 2 2 2 2 2 2 3 3 4 3 3 3 5 5 5 6 7 5 6 6 6 6 8 9 8 8 8 8 9 9 8 8 7 7 6 6 6 7 2 2 8 10 12 12 9 7 6 6 6 8 8 14 17 11 7 7 7 7 7 8 8 9 9 9 9 9 9 9 10 10 10 10 10 10 10 10 10 10 9 9 9 9 9 10 10
3 2 2 2 3 2 2 3 2 4 5 6 4 4 4 4 5 5 6 6 7 7 7 7 7 8 8 7 7 8 8 7 6 6 7 6 8 9 8 7 5 6 11 10 10 8 8 6 6 4 11 12 10 17 15 7 6 6 6 7 8 8 7 8 8 8 8 9 9 9 9 10 10 10 11 10 10 10 10 10 9 10 10 9 9 9 9
3 3 3 2 2 1 2 2 3 3 4 6 4 3 3 5 5 6 7 7 7 6 7 7 6 6 7 7 7 6 6 4 4 4 5 6 5 5 8 4 2 6 12 10 8 8 7 5 4 10 16 16 16 16 9 5 5 5 6 7 6 7 7 7 7 8 8 9 9 9 9 10 10 9 10 10 10 10 10 9 9 9 9 9 9 9 9
3 3 3 2 2 1 2 2 3 3 4 4 5 6 6 6 7 6 6 7 7 7 6 6 6 6 6 6 5 5 5 4 4 4 4 5 4 2 1 2 4 5 8 12 9 8 6 5 9 15 14 16 16 14 6 5 5 5 6 6 6 7 6 6 7 7 8 8 8 8 9 9 9 9 9 9 10 9 10 9 9 8 9 9 9 9 10
2 2 1 2 2 3 3 4 3 3 4 4 6 8 8 7 7 6 5 7 7 7 7 6 6 7 6 5 5 6 6 6 5 6 6 5 5 4 4 5 5 6 13 14 8 6 5 10 13 13 14 14 14 8 4 5 5 5 5 6 6 7 6 6 7 7 7 7 8 8 8 8 8 8 8 8 8 8 9 11 9 9 9 8 8 8 8
1 0 2 3 4 3 3 3 2 3 3 3 4 6 5 3 3 3 5 7 8 7 7 7 7 6 5 5 5 4 4 4 4 4 5 4 3 3 5 8 9 11 10 7 6 5 5 7 9 13 14 14 12 5 5 4 5 4 5 5 6 5 6 6 7 7 7 7 8 8 8 8 7 7 8 8 8 8 8 9 9 9 8 9 8 9 9
2 2 3 4 6 5 2 1 1 3 3 6 5 4 5 5 5 5 5 5 5 5 5 5 4 5 6 5 5 4 3 3 4 2 1 0 1 2 4 4 6 9 12 10 9 7 10 9 11 12 13 12 6 3 4 4 5 5 5 5 5 6 6 6 6 6 7 7 7 7 7 8 8 7 7 7 8 7 7 7 7 7 7 8 8 8 8
3 5 5 5 3 5 3 2 2 3 2 2 2 4 4 5 6 5 4 5 5 4 5 5 5 5 4 4 3 3 3 4 5 4 2 2 3 3 4 6 9 10 8 6 6 5 7 9 10 10 11 8 4 4 4 4 5 5 5 5 5 5 5 5 5 6 6 7 6 6 6 6 7 7 7 7 7 6 7 7 6 6 6 6 6 7 6
2 2 2 1 1 1 1 1 2 2 3 4 3 3 3 3 3 3 2 2 2 3 3 3 2 2 1 1 1 2 3 4 4 5 6 5 4 5 5 6 6 8 8 6 5 6 6 8 7 7 7 4 4 4 3 4 4 5 4 5 5 4 4 6 6 6 5 6 6 6 6 6 6 7 7 6 6 6 6 6 5 7 10 7 7 6 6
1 0 0 1 1 2 2 3 3 3 3 4 3 4 3 3 3 3 2 2 3 3 2 2 1 1 1 1 2 2 3 3 4 4 4 3 3 5 6 6 7 6 5 5 5 5 5 4 5 5 5 5 5 4 4 5 4 5 5 5 4 5 5 6 6 6 6 6 5 5 6 5 6 6 5 5 6 6 6 7 6 7 7 6 6 6 6
2 2 1 2 1 2 2 3 4 4 4 3 3 3 3 2 3 3 2 2 2 2 2 3 3 1 1 1 2 2 3 3 3 2 2 3 4 4 4 6 5 4 4 3 4 4 5 5 5 5 5 4 3 4 5 6 4 4 4 4 4 4 4 5 4 5 6 6 6 5 5 4 5 6 5 6 5 5 5 5 5 5 5 5 6 6 6
Wind_Direction
273 275 277 281 283 284 283 280 278 277 278 272 259 257 270 278 260 273 298 294 286 281 280 285 282 290 313 116 162 161 169 169 178 199 212 228 232 236 237 247 249 258 268 280 292 301 309 316 322 327 330 331 331 331 330 332 336 339 335 332 324 324 325 320 322 319 316 318 314 323 325 326 329 331 328 324 323 320 318 311 308 309 309 312 310 305 298
279 275 273 273 275 278 282 277 275 274 271 267 268 274 276 270 270 276 277 276 276 282 280 282 303 59 75 93 109 133 152 184 186 223 233 242 246 240 243 247 248 253 258 267 272 280 286 290 296 303 308 312 319 322 323 328 332 333 340 332 330 327 327 326 328 327 318 316 317 322 326 325 330 329 324 319 316 315 313 310 310 301 291 288 288 288 295
270 264 266 269 273 275 267 265 266 264 264 265 269 275 272 275 272 264 265 268 270 268 286 67 77 62 93 93 128 112 152 167 226 244 265 263 260 256 255 256 257 261 263 266 267 265 267 275 280 285 286 287 292 293 296 303 309 320 330 324 321 323 320 322 325 323 321 319 324 321 315 318 317 325 321 318 314 311 307 304 305 303 302 299 289 290 290
262 252 267 272 276 275 273 273 263 258 261 268 265 261 264 263 264 266 270 267 270 322 73 54 87 82 65 49 27 20 7 341 315 300 301 301 291 280 268 262 260 256 255 257 260 264 268 268 266 265 265 266 270 273 279 287 291 303 305 300 306 306 311 314 318 319 317 317 315 312 313 312 316 312 308 304 302 303 305 308 308 309 303 297 298 297 289
253 261 272 285 308 295 274 247 243 249 254 253 258 256 256 253 263 269 263 272 359 88 317 41 100 77 15 23 352 345 329 319 314 300 296 297 295 294 288 273 262 255 253 255 257 259 261 260 261 256 256 256 255 255 260 261 267 271 277 283 288 292 296 301 302 305 307 307 301 293 283 283 287 295 303 310 308 297 291 296 302 302 304 305 300 296 293
276 278 290 100 271 263 253 305 134 226 260 271 273 270 270 273 264 281 320 254 182 202 147 118 87 33 4 344 329 322 307 309 309 309 305 301 301 297 287 278 270 260 253 248 248 247 248 248 247 249 244 248 250 252 254 255 252 252 258 265 269 276 278 276 283 287 295 295 295 294 299 298 295 291 298 298 298 297 295 293 289 291 290 290 293 296 297
268 275 277 268 246 244 348 105 263 266 293 282 254 265 270 272 273 275 273 285 284 288 72 76 23 356 334 328 312 309 297 289 270 279 289 294 302 304 299 291 279 270 261 256 255 257 256 254 252 246 244 239 244 250 252 255 256 259 260 268 271 275 280 279 279 279 279 280 280 283 288 293 299 301 303 304 304 301 289 283 287 290 292 290 285 284 290
270 258 247 249 249 129 190 247 248 268 237 250 260 268 266 269 275 280 285 286 277 107 48 16 357 339 315 308 283 281 284 274 265 257 287 313 318 320 323 322 318 309 293 276 269 266 265 262 256 254 260 266 269 275 283 284 281 276 274 273 272 275 277 275 274 268 273 275 273 264 264 274 284 287 289 293 299 299 290 284 282 285 282 283 290 291 285
254 250 247 251 289 287 274 274 270 267 265 280 285 293 301 35 282 279 252 256 108 56 3 357 336 313 293 293 288 271 286 308 275 271 310 320 323 320 323 324 320 319 314 304 293 289 290 297 311 316 318 329 337 331 322 310 303 293 286 279 275 275 276 276 277 277 276 275 274 267 256 267 271 274 279 285 287 286 282 281 283 282 284 284 283 282 286
250 262 266 269 267 265 279 309 16 29 46 29 10 330 296 303 21 351 244 133 70 8 336 325 322 292 296 303 298 313 326 350 336 314 295 313 318 321 320 321 317 317 327 349 357 357 345 343 345 8 23 18 352 325 308 302 298 293 290 284 280 283 281 279 280 277 275 275 275 269 264 266 268 265 270 275 278 277 273 275 277 281 283 284 282 278 276
261 254 258 256 258 264 109 237 13 69 67 22 350 305 288 121 171 24 81 55 359 346 318 314 312 308 287 284 296 313 340 328 323 313 307 311 317 322 323 325 338 357 357 350 339 338 343 344 1 14 357 350 337 316 305 299 295 293 292 292 294 294 291 287 287 289 288 285 279 275 270 270 273 277 278 275 277 278 268 266 271 278 276 276 280 280 276
237 249 248 253 254 273 60 110 59 81 83 13 350 290 289 96 187 156 160 328 323 304 301 296 294 276 282 286 303 326 315 314 310 310 309 312 319 319 336 20 14 355 355 352 344 346 346 341 345 343 338 329 325 318 311 306 302 299 299 301 304 301 296 294 297 297 295 290 284 282 282 283 281 280 280 276 272 269 265 266 274 274 274 271 275 277 277
239 239 252 261 261 264 272 273 296 331 109 14 275 259 312 179 207 197 225 246 264 278 282 280 279 269 280 293 297 301 304 304 304 306 310 309 318 345 26 19 9 360 351 346 334 327 327 334 340 341 340 331 325 324 317 309 304 305 307 309 307 303 303 303 301 298 295 292 292 289 286 288 286 280 274 274 277 274 273 271 270 271 271 273 274 275 275
243 246 254 253 269 255 238 254 238 164 178 244 250 328 114 193 231 242 224 242 251 259 260 263 264 275 280 284 287 288 296 301 302 304 308 331 4 17 6 12 3 351 340 330 325 329 337 342 340 338 337 325 317 316 312 307 313 315 316 314 312 308 302 298 297 295 293 291 289 286 284 282 280 278 276 274 273 275 273 272 273 272 272 272 271 272 271
248 246 254 257 259 42 87 126 87 210 222 240 277 341 242 247 262 285 276 262 273 264 273 270 275 284 287 287 291 296 295 300 302 310 345 17 355 348 346 343 354 353 334 329 329 329 336 338 337 339 336 322 316 315 309 313 318 319 320 316 308 300 295 295 295 294 293 291 290 287 284 282 279 278 278 275 272 271 271 272 272 273 270 268 266 266 268
260 255 247 233 279 274 186 181 243 252 240 266 285 295 293 295 300 294 289 285 290 293 278 280 284 286 290 290 292 295 298 298 314 343 353 350 347 335 338 350 350 1 333 327 320 323 331 334 337 339 339 324 318 317 311 319 318 319 319 313 308 302 301 301 302 300 299 298 295 292 289 288 284 279 277 274 271 264 264 266 267 263 266 265 262 263 268
264 267 272 276 301 326 176 199 233 255 274 278 281 279 276 279 278 284 284 291 295 293 291 284 282 284 282 287 293 296 302 318 329 332 330 337 334 338 344 347 357 357 336 322 321 316 326 337 333 336 336 323 315 310 312 321 320 321 316 314 311 305 305 305 303 302 301 298 296 294 291 288 286 282 277 277 273 265 260 252 258 261 258 258 259 260 261
263 265 267 276 276 266 246 229 233 248 259 267 273 270 268 260 276 288 289 292 291 293 287 270 271 271 283 290 296 303 312 315 312 318 322 326 336 344 352 341 351 342 329 322 316 315 319 338 329 330 327 326 312 308 315 316 315 315 313 311 306 302 303 300 300 302 302 299 295 292 291 289 284 280 279 279 274 273 268 268 262 258 256 255 254 257 259
261 258 257 254 256 259 261 263 263 263 264 270 270 269 270 276 280 279 267 271 289 289 290 259 267 276 284 286 291 300 301 301 307 313 314 325 344 344 341 340 343 337 333 319 315 316 311 324 328 320 321 315 308 308 311 311 310 309 308 303 298 297 298 299 298 299 296 294 296 296 293 290 284 282 282 281 277 276 274 272 272 269 267 264 262 260 259
240 258 258 257 253 261 262 262 268 267 266 265 266 266 273 279 106 123 155 105 253 227 250 255 261 271 280 282 286 292 296 301 307 311 318 329 331 334 336 331 346 332 321 315 313 315 311 318 319 317 311 305 305 308 306 308 309 307 301 298 295 295 297 296 294 295 292 291 292 292 293 291 290 288 284 281 279 276 276 278 279 278 276 272 268 267 268
253 257 262 265 268 265 263 260 258 262 265 268 270 274 267 135 170 133 136 164 219 235 259 336 269 271 271 279 289 294 301 300 303 315 323 323 325 328 328 328 337 322 316 312 308 307 304 310 310 307 302 300 304 304 303 305 305 303 301 299 297 295 296 294 292 292 291 291 290 290 290 287 281 279 282 283 280 278 274 274 273 273 274 273 270 271 271
255 252 245 243 253 264 263 258 259 263 260 261 268 235 149 173 168 173 172 178 172 191 200 244 260 263 278 281 302 292 293 298 311 316 320 323 320 321 322 317 314 310 310 307 304 303 300 304 304 303 301 301 302 306 304 304 305 303 302 301 299 298 297 295 294 293 293 292 290 288 287 286 287 282 274 275 277 277 279 275 273 272 272 272 272 268 266
254 249 242 242 258 264 273 282 286 258 133 192 211 225 220 161 145 143 195 199 200 197 183 136 196 264 283 300 320 303 296 302 314 318 321 321 321 317 317 312 309 314 309 304 298 296 297 302 303 305 303 305 308 309 306 303 303 300 302 301 299 297 296 294 295 296 295 292 289 287 286 286 286 287 290 281 277 279 279 281 280 278 278 278 278 278 276
256 260 270 269 268 274 277 280 263 150 157 176 214 163 118 134 140 144 177 222 234 238 156 148 125 278 303 313 323 301 302 305 316 317 318 321 311 305 302 303 308 309 305 305 302 302 305 306 304 304 301 300 304 303 301 299 298 299 299 298 296 296 296 294 295 293 289 288 288 287 287 285 286 288 288 290 286 278 280 283 283 283 282 282 282 283 283
259 257 259 263 270 273 278 88 119 135 139 195 197 187 163 148 136 131 171 173 99 143 251 245 193 75 357 315 318 306 307 311 314 314 314 305 295 292 298 301 298 300 302 303 306 305 303 301 299 299 299 298 301 299 299 300 301 296 294 294 294 293 291 291 290 289 289 288 287 287 287 287 287 287 288 289 290 293 284 282 285 286 285 285 284 284 284
250 254 257 261 269 258 147 136 190 171 161 157 135 117 98 86 88 109 125 114 155 97 157 264 253 345 38 350 322 313 308 298 309 312 300 293 294 297 294 297 301 300 299 301 298 294 293 294 294 295 295 295 296 296 300 298 295 290 289 287 286 288 288 289 289 288 286 284 285 286 285 286 286 287 286 286 288 290 294 295 289 284 282 283 284 285 285
249 249 256 261 252 241 201 216 255 128 130 128 133 125 117 113 116 102 72 73 95 81 112 52 16 8 7 324 306 299 295 300 304 292 285 291 293 294 301 304 301 298 297 296 293 287 287 289 291 291 290 293 296 297 296 294 290 289 287 288 289 286 286 286 285 284 283 284 285 284 285 285 285 285 285 287 287 289 290 291 292 291 292 287 285 284 284
258 250 221 235 251 261 212 73 92 107 110 122 125 120 114 108 95 102 106 166 177 165 114 148 166 10 320 306 308 301 299 292 285 289 290 286 297 304 299 297 297 295 294 292 288 285 279 285 285 288 291 295 298 297 293 290 289 288 288 288 288 288 288 287 285 283 284 285 284 284 284 283 283 283 284 284 285 284 285 285 286 288 288 286 288 290 290
223 118 63 40 66 89 98 110 108 119 122 109 105 97 108 110 147 163 194 184 167 151 239 231 117 296 287 297 304 294 289 286 286 289 292 299 301 297 294 293 291 291 287 282 281 281 282 286 288 294 295 297 297 291 291 296 294 294 293 291 290 288 286 285 284 283 284 283 281 280 280 282 283 283 282 282 281 282 282 284 284 285 286 289 289 288 288
110 96 103 113 105 125 136 175 174 153 146 149 133 133 134 135 167 180 165 174 185 198 247 242 277 281 298 294 283 278 285 290 294 299 302 301 296 292 287 286 289 283 278 277 290 300 301 296 294 290 293 300 301 302 304 302 301 298 292 289 286 285 286 287 287 287 286 284 284 285 285 283 282 282 282 280 280 280 282 283 283 285 286 287 289 290 294
84 76 90 100 117 159 186 189 151 151 134 131 146 145 155 151 174 202 203 185 153 261 287 294 287 286 280 273 282 287 290 293 296 298 295 290 286 284 282 281 287 301 304 300 301 299 297 297 293 289 295 302 308 310 307 306 308 306 302 299 295 293 293 294 294 292 288 288 286 286 284 284 281 281 280 279 280 280 279 278 281 281 282 284 286 287 287
95 79 77 118 151 175 184 145 144 172 160 141 126 163 183 177 192 198 213 231 253 240 268 266 261 258 263 274 283 288 291 295 296 293 287 285 282 276 275 275 274 278 285 292 294 297 298 295 292 293 301 311 311 310 313 313 312 306 301 300 298 301 298 298 297 293 290 287 285 283 280 279 279 276 277 278 278 278 278 281 280 279 280 281 282 282 286
115 221 250 182 149 248 226 207 179 184 153 157 167 131 102 100 167 197 219 241 257 256 256 263 265 270 277 280 281 283 286 290 286 279 269 262 265 278 287 289 286 286 290 290 290 291 289 290 290 305 312 309 309 311 311 308 307 304 302 300 299 297 297 298 295 295 291 288 284 280 278 276 277 278 275 274 274 273 272 273 273 278 278 277 278 278 280
193 232 32 84 151 190 199 198 161 138 133 126 121 132 157 176 170 219 243 259 266 275 268 268 270 269 271 273 275 279 287 288 284 277 280 287 290 293 293 292 291 292 288 288 289 285 286 293 307 309 303 305 308 308 306 307 307 307 302 303 300 300 300 300 300 298 295 295 292 291 288 282 276 273 274 278 275 271 271 270 274 275 277 279 280 279 282
88 88 92 83 71 66 43 82 115 132 128 157 161 156 199 213 196 225 247 249 248 259 268 273 273 269 272 273 275 267 263 258 267 274 279 285 290 292 293 298 298 297 295 291 288 283 292 306 305 298 300 304 303 298 304 310 312 310 309 304 304 302 302 304 305 304 302 299 298 298 297 296 291 286 283 279 278 275 271 272 273 274 276 278 279 281 283
91 97 96 99 85 86 96 101 110 137 162 173 194 197 203 213 228 239 241 252 269 276 274 277 276 273 264 262 264 264 259 268 273 274 274 278 286 298 302 300 299 300 299 297 287 282 319 309 301 307 313 308 301 305 314 320 317 319 314 312 307 307 307 307 306 304 305 305 305 304 303 303 302 301 299 289 280 277 276 278 278 277 276 276 277 283 285
80 105 113 118 123 120 126 138 152 165 180 189 206 219 227 226 238 246 254 263 267 268 272 269 260 254 257 261 267 272 267 266 267 274 283 292 295 295 294 294 293 282 286 292 314 345 320 305 304 314 314 296 299 314 321 328 331 326 319 314 310 311 312 311 311 311 311 311 311 310 311 311 314 313 315 321 320 315 303 293 293 294 292 293 297 300 306
116 116 120 120 131 133 140 143 149 153 174 210 225 222 228 236 241 244 243 254 259 261 265 261 257 263 269 274 270 266 267 269 269 273 274 277 281 290 291 283 282 287 293 293 321 323 307 302 309 314 303 301 315 321 323 330 334 329 318 316 313 314 313 315 315 315 315 316 318 317 317 318 319 321 323 324 325 328 330 334 333 332 332 335 337 339 341
128 115 99 90 96 131 156 154 148 178 197 218 236 244 238 231 246 251 246 251 254 257 256 250 256 257 259 263 267 270 268 268 268 267 271 277 281 279 274 275 269 265 268 299 315 304 296 298 312 308 304 309 321 318 325 329 331 324 318 315 318 317 318 317 318 316 317 319 319 322 323 323 323 323 325 326 328 331 335 338 337 339 339 339 341 344 344
128 122 113 112 142 154 177 229 188 208 214 212 220 251 258 258 258 246 250 252 256 250 245 248 247 254 260 258 264 266 267 267 269 273 274 281 287 285 282 273 255 246 245 300 309 296 295 304 311 302 306 319 325 327 331 330 328 322 320 320 321 322 321 321 321 321 321 323 322 324 325 325 326 326 327 329 330 335 339 340 343 346 345 346 346 345 347
139 136 170 164 213 204 229 242 249 237 225 236 236 245 250 245 254 257 255 255 262 250 232 229 240 249 249 254 257 264 273 276 271 267 271 284 279 278 284 285 266 267 342 339 313 303 300 303 307 309 317 326 327 334 333 327 325 314 319 324 328 326 325 327 326 326 326 326 326 326 327 328 327 328 331 333 337 340 341 343 344 348 349 348 347 348 350
163 142 188 235 240 250 255 263 273 283 276 263 255 255 261 251 242 242 252 256 262 261 254 250 241 246 253 257 259 265 268 269 268 269 262 254 265 278 283 269 299 324 341 328 313 304 298 298 305 313 326 330 326 329 332 323 323 323 326 327 328 327 325 327 328 329 327 326 326 326 328 330 330 331 333 336 339 343 344 345 347 349 353 352 352 355 356
163 175 191 215 241 253 256 263 263 274 288 290 286 272 258 251 244 249 249 250 250 255 256 256 257 258 256 257 261 267 271 270 264 268 272 254 233 229 239 268 308 327 330 313 304 297 300 302 315 315 330 331 327 331 332 325 324 326 330 328 326 327 326 328 328 328 329 333 333 334 335 334 336 337 339 341 341 341 345 347 352 354 355 355 357 1 7
174 193 204 220 230 247 259 270 266 277 280 286 280 255 252 252 243 240 248 250 253 248 245 251 251 250 251 248 248 259 266 270 278 294 299 297 294 243 218 239 309 322 313 303 301 299 296 306 306 326 327 331 333 336 332 324 327 329 334 330 327 324 327 332 332 332 335 334 336 336 336 337 340 344 345 344 343 344 349 351 356 356 356 356 1 6 10
188 186 208 213 234 255 265 260 259 260 271 292 297 288 275 264 262 249 240 243 246 248 239 240 244 246 248 246 246 253 262 275 274 282 278 285 289 290 88 36 331 319 301 304 297 292 295 304 319 326 329 332 336 335 328 328 329 331 329 329 326 329 329 330 337 336 335 336 337 335 337 339 341 345 346 343 344 345 348 350 354 357 358 360 1 8 12
195 196 197 246 247 239 238 258 281 294 281 285 290 283 267 250 250 254 231 227 235 240 235 236 242 249 251 258 261 261 259 262 260 245 241 245 262 293 336 330 311 302 299 299 290 290 298 308 318 327 330 334 335 331 328 327 326 329 330 332 332 331 332 335 336 334 333 338 338 335 337 338 343 345 344 345 344 343 343 350 356 3 7 8 8 8 10
166 203 220 229 252 255 259 254 258 260 263 270 257 267 288 276 245 239 248 229 223 238 241 240 240 243 243 239 243 260 280 294 285 249 228 228 249 285 304 303 296 295 295 295 289 291 290 307 320 328 333 334 329 322 323 323 327 327 328 330 330 333 334 338 337 334 338 337 332 331 338 345 344 340 344 348 353 359 359 359 0 0 360 1 3 4 4
190 223 236 226 245 256 253 231 222 249 252 253 261 276 281 288 281 271 264 260 248 244 250 256 248 236 229 224 225 233 245 258 287 290 146 233 308 307 299 288 286 293 298 290 281 274 285 308 325 330 332 330 320 323 324 332 333 331 332 336 336 336 343 338 338 344 336 331 333 340 346 348 349 346 348 355 357 356 360 359 2 358 358 5 5 2 3
207 230 252 248 248 252 249 245 240 253 267 261 245 266 261 256 261 261 259 247 245 249 251 241 237 234 228 212 226 233 232 220 232 260 319 328 307 303 292 288 287 292 295 287 295 299 306 318 319 321 329 323 320 327 329 331 326 323 330 333 332 331 336 337 334 334 332 332 332 336 339 339 342 345 344 347 349 347 349 357 359 3 358 357 2 4 8
214 215 229 225 224 225 226 272 288 292 304 307 287 295 302 301 298 298 299 286 277 278 273 258 239 222 216 242 234 232 231 234 244 261 276 281 285 284 282 281 285 291 293 297 303 302 308 311 311 323 332 324 322 326 329 327 324 327 327 323 329 326 327 327 321 326 331 336 335 336 339 337 336 335 337 344 344 343 350 345 343 343 345 358 5 3 4
183 214 251 267 256 256 224 226 251 281 288 285 290 292 290 292 294 301 300 302 295 293 286 296 284 269 249 244 252 258 248 252 254 256 268 279 282 282 280 287 293 291 298 306 304 307 311 314 319 321 323 322 318 317 323 327 319 315 323 327 324 321 326 332 336 339 337 335 330 329 331 334 336 334 342 347 339 339 340 345 344 350 353 349 352 352 351
234 259 276 271 264 266 270 256 245 246 254 274 289 292 290 297 299 301 298 296 298 305 324 328 317 298 236 254 276 268 258 257 261 272 290 288 290 293 292 289 284 286 292 300 299 297 298 303 303 298 304 310 314 313 309 311 311 309 314 314 321 324 321 320 325 329 329 330 330 333 330 335 337 331 335 336 334 336 336 338 340 343 343 343 345 344 341